Torrington, WY

5:58 AM MDT on April 30, 2017 (GMT -0600)
Torrington Municipal

Weather History for KTOR - May, 2013

Change the Weather History Date:

Thursday, May 30, 2013

  Actual Average Record
Temperature  
Mean Temperature 57 °F 61 °F  
Max Temperature 70 °F 75 °F 96 °F (2002)
Min Temperature 43 °F 46 °F 37 °F (2004)
Degree Days  
Heating Degree Days 8 6  
Month to date heating degree days 252 274  
Since 1 July heating degree days 6469 6506  
Cooling Degree Days 0 1  
Month to date cooling degree days 39 8  
Year to date cooling degree days 39 9  
Growing Degree Days 6 (Base 50)    
Moisture  
Dew Point 39 °F    
Average Humidity 58    
Maximum Humidity 89    
Minimum Humidity 27    
Precipitation  
Precipitation 0.04 in 0.14 in 0.96 in (2005)
Month to date precipitation 1.23 2.33  
Year to date precipitation 3.68 5.34  
Sea Level Pressure  
Sea Level Pressure 29.55 in    
Wind  
Wind Speed 17 mph (WNW)    
Max Wind Speed 36 mph    
Max Gust Speed 51 mph    
Visibility 10 miles    
Events      
T = Trace of Precipitation, MM = Missing Value Source: NWS Daily Summary

Daily Weather History Graph

Daily Weather History Graph

Search for Another Location

Airport or City:

Trip Planner

Search our weather history database for the weather conditions in past years. The results will help you decide how hot, cold, wet, or windy it might be!

Date:

Astronomy

May. 30, 2013 Rise Set
Actual Time 5:24 AM MDT 8:24 PM MDT
Civil Twilight 4:50 AM MDT 8:58 PM MDT
Nautical Twilight 4:08 AM MDT 9:41 PM MDT
Astronomical Twilight 3:17 AM MDT 10:31 PM MDT
Moon 12:23 AM MDT 11:39 AM MDT
Length of Visible Light 16h 07m
Length of Day
15h 00m
Waning Gibbous, 61% of the Moon is Illuminated
May 30
Waning Gibbous
May 31
Last Quarter
Jun 8
New
Jun 16
First Quarter
Jun 23
Full

Hourly Weather History & Observations

Time (MDT) Temp. Windchill Dew Point Humidity Pressure Visibility Wind Dir Wind Speed Gust Speed Precip Events Conditions
12:53 AM 46.9 °F - 42.1 °F 83% 29.52 in 10.0 mi South 4.6 mph - N/A   Clear
1:53 AM 48.0 °F - 41.0 °F 77% 29.52 in 10.0 mi West 5.8 mph - N/A   Clear
2:53 AM 45.0 °F 42.6 °F 39.9 °F 82% 29.54 in 10.0 mi West 4.6 mph - N/A   Clear
3:53 AM 48.0 °F - 41.0 °F 77% 29.52 in 10.0 mi NW 9.2 mph - N/A   Clear
4:53 AM 43.0 °F 40.3 °F 39.9 °F 89% 29.52 in 10.0 mi South 4.6 mph - N/A   Clear
5:53 AM 48.0 °F - 39.9 °F 74% 29.52 in 10.0 mi SW 3.5 mph - N/A   Clear
6:53 AM 52.0 °F - 39.0 °F 61% 29.51 in 10.0 mi West 15.0 mph 20.7 mph N/A   Clear
7:53 AM 55.9 °F - 39.9 °F 55% 29.51 in 10.0 mi West 19.6 mph 28.8 mph N/A   Clear
8:53 AM 59.0 °F - 37.9 °F 46% 29.51 in 10.0 mi West 20.7 mph 35.7 mph N/A   Partly Cloudy
9:53 AM 62.1 °F - 37.0 °F 39% 29.50 in 10.0 mi West 28.8 mph 36.8 mph N/A   Clear
10:53 AM 66.0 °F - 36.0 °F 33% 29.48 in 10.0 mi West 20.7 mph 39.1 mph N/A   Clear
11:53 AM 68.0 °F - 36.0 °F 31% 29.47 in 10.0 mi West 25.3 mph 36.8 mph N/A   Partly Cloudy
12:53 PM 68.0 °F - 34.0 °F 28% 29.47 in 10.0 mi West 29.9 mph 39.1 mph N/A   Mostly Cloudy
1:53 PM 66.9 °F - 32.0 °F 27% 29.47 in 10.0 mi WNW 24.2 mph 39.1 mph N/A   Overcast
2:33 PM 62.6 °F - 41.0 °F 45% 29.57 in 10.0 mi NNW 26.5 mph 39.1 mph N/A   Mostly Cloudy
2:53 PM 63.0 °F - 39.0 °F 41% 29.51 in 10.0 mi NNW 28.8 mph 39.1 mph N/A   Mostly Cloudy
3:53 PM 62.1 °F - 37.9 °F 41% 29.52 in 10.0 mi NW 20.7 mph 38.0 mph 0.00 in   Mostly Cloudy
4:53 PM 63.0 °F - 37.0 °F 38% 29.55 in 10.0 mi WNW 27.6 mph 44.9 mph N/A   Overcast
5:53 PM 62.1 °F - 37.9 °F 41% 29.55 in 10.0 mi NW 20.7 mph 29.9 mph N/A   Mostly Cloudy
6:53 PM 59.0 °F - 37.9 °F 46% 29.56 in 10.0 mi NW 25.3 mph 36.8 mph N/A   Overcast
7:53 PM 55.9 °F - 43.0 °F 62% 29.61 in 10.0 mi NNW 16.1 mph 26.5 mph N/A   Scattered Clouds
8:53 PM 50.0 °F - 43.0 °F 77% 29.66 in 10.0 mi NNW 20.7 mph 28.8 mph 0.04 in   Clear
9:53 PM 48.9 °F - 42.1 °F 77% 29.69 in 10.0 mi NW 11.5 mph - N/A   Partly Cloudy
10:53 PM 48.9 °F - 42.1 °F 77% 29.68 in 10.0 mi NW 11.5 mph - N/A   Partly Cloudy
11:53 PM 48.0 °F - 42.1 °F 80% 29.68 in 10.0 mi Variable 3.5 mph - N/A   Scattered Clouds